Regional Weather Roundup
Issued by NWS Northern Indiana

Home | Current Version | Previous Version | Graphics & Text | Print | Product List | Glossary On
Versions: 1 2 3 4 5 6 7 8 9 10 11 12 13 14 15 16 17 18 19 20 21 22 23 24 25 26 27 28 29 30 31 32 33 34 35 36 37 38 39 40 41 42 43 44 45 46 47 48 49 50
000
ASUS43 KIWX 040910
RWRIWX

KIWX WEATHER ROUNDUP
NATIONAL WEATHER SERVICE NORTHERN INDIANA
500 AM EDT TUE AUG 04 2015

NOTE: "FAIR" INDICATES FEW OR NO CLOUDS BELOW 12,000 FEET WITH NO
SIGNIFICANT WEATHER AND/OR OBSTRUCTIONS TO VISIBILITY.

* THESE STATIONS ARE NOT UNDER NWS QUALITY CONTROL. THEY ALSO MAY NOT
  REPORT WEATHER SUCH AS PRECIPITATION OR FOG.

INZ001>027-041000-
NORTHERN INDIANA

CITY           SKY/WX    TMP DP  RH WIND       PRES   REMARKS
GARY*          CLEAR     59  57  92 SW3       29.93R
VALPARAISO     CLEAR     62  55  77 W5        29.93R
MICHIGAN CITY* CLEAR     57  55  94 CALM      29.93R
LAPORTE*       CLEAR     58  58 100 CALM      29.93R
KNOX*          CLEAR     59  55  88 CALM      29.92R
SOUTH BEND     CLEAR     61  55  81 SW5       29.93R
GOSHEN         CLEAR     59  53  80 S5        29.92R
MONTICELLO*    CLEAR     60  57  92 CALM      29.93S
LOGANSPORT*    CLEAR     57  54  88 CALM      29.95R
ROCHESTER*     CLEAR     63  59  88 SW5       29.94R
WARSAW*        CLEAR     57  55  94 CALM      29.93R
ANGOLA*        CLEAR     55  54  94 CALM      29.92S
FORT WAYNE     CLEAR     59  56  89 SW7       29.94R
HUNTINGTON*    CLEAR     61  58  88 SW5       29.93S
PERU/GRISSOM   CLEAR     58  57  94 SW3       29.94R
MARION*        CLEAR     56  56  99 CALM      29.95S

$$
INZ028>050-041000-
CENTRAL INDIANA

CITY           SKY/WX    TMP DP  RH WIND       PRES   REMARKS
LAFAYETTE      CLEAR     56  55  97 CALM      29.93F
KOKOMO*        CLEAR     57  54  88 CALM      29.95S
MUNCIE*        CLEAR     57  57 100 CALM      29.95S
INDIANAPOLIS   CLEAR     65  58  78 CALM      29.94R

$$
MIZ043>046-050>051-056>058-064>065-071>073-077>080-041000-
SOUTHWEST LOWER MICHIGAN

CITY           SKY/WX    TMP DP  RH WIND       PRES   REMARKS
BATTLE CREEK     N/A    N/A N/A N/A MISG      29.91R
BENTON HARBOR  CLEAR     58  56  93 CALM      29.90R
COLDWATER*     CLEAR     57  52  83 SW3       29.91S
HILLSDALE*     PTCLDY    60  53  77 CALM      29.92S
HOLLAND        CLEAR     59  56  89 CALM      29.89S
GRAND RAPIDS   CLEAR     62  55  77 W6        29.89R
KALAMAZOO      PTCLDY    61  54  77 CALM      29.90S
STURGIS*       CLEAR     55  54  94 CALM      29.91S
THREE RIVERS*  FAIR      57  54  90 S5        29.91S

$$
OHZ001>008-015>018-024>025-041000-
NORTHWEST OHIO

CITY           SKY/WX    TMP DP  RH WIND       PRES   REMARKS
WAUSEON*       FAIR      57  55  94 CALM      29.92R
DEFIANCE       CLEAR     57  54  89 CALM      29.92R
FINDLAY        CLEAR     58  53  84 SW5       29.91S
TOLEDO EXPRESS CLEAR     60  53  77 SW7       29.91R
TOLEDO METCALF CLEAR     60  52  74 SW5       29.92R
LIMA           CLEAR     58  53  84 S5        29.94R

$$
AND FOR LAKE MICHIGAN COASTAL AND OPEN LAKE BUOY OBSERVATIONS

STATION/POSITION TEMP    WIND        PRES    VSBY  WAVE
                 AIR SEA DIR/SP/G                  HT/PER
                 (F)     (DEG/KT/KT) (MB)    (MI)  (FT/S)
CALUMET HARBOR    68     250/  3/  5   N/A
MICHIGAN CITY     65     180/  7/  9   N/A
BURNS HARBOR      68     230/  5/  6 1013.2S
SAINT JOSEPH      71     320/  7/  8 1013.5R
4 MI NW BRIDGMAN  71 73  350/ 10/ 12   N/A           2/ 3
MICHIGAN CITY     72 73  310/  8/ 10   N/A           2/ 3

$$
&&



USA.gov is the U.S. government's official web portal to all federal, state and local government web resources and services.